Location: Schommer Observatory
(40.5200°N, 74.4500°W)
Time: 12:49:41
(UTC-05:00)

N. Korean satellite - Pass Details

Date: 18 November 2017
Orbit: 460 x 515 km, 97.2° (Epoch: 17 November)

Event Time Altitude Azimuth Distance (km) Brightness Sun altitude
Rises 18:45:52 0° 199° (SSW) 2,479 10.5 -24.2°
Reaches altitude 10° 18:48:17 10° 218° (SW) 1,616 9.7 -24.7°
Maximum altitude 18:50:52 20° 266° (W) 1,159 9.3 -25.2°
Drops below altitude 10° 18:53:30 10° 314° (NW) 1,645 9.7 -25.7°
Sets 18:56:00 0° 332° (NNW) 2,539 10.5 -26.1°
